Regional Weather Roundup
Issued by NWS Huntsville, AL

Home | Current Version | Previous Version | Text Only | Print | Product List | Glossary On
Versions: 1 2 3 4 5 6 7 8 9 10 11 12 13 14 15 16 17 18 19 20 21 22 23 24 25 26 27 28 29 30 31 32 33 34 35 36 37 38 39 40 41 42 43 44 45 46 47 48 49
000
ASUS44 KHUN 271210
RWRHUN

WEATHER ROUNDUP FOR THE TENNESSEE VALLEY
NATIONAL WEATHER SERVICE HUNTSVILLE AL
700 AM CDT WED MAY 27 2015

ALZ001>004-271300-
NORTHWEST ALABAMA

CITY           SKY/WX    TMP DP  RH WIND       PRES   REMARKS
COURTLAND HCN    N/A     70 N/A N/A S5          N/A
BANKHEAD NF      N/A     68  67  98 S1          N/A
RUSSELLVILLE     N/A     70 N/A N/A MISG        N/A
SHOALS AIRPORT MOSUNNY   72  68  87 S6        30.17R
6HR MIN TEMP:  70; 6HR MAX TEMP:  72;

SHOALS TVA RES   N/A     72 N/A N/A MISG        N/A
$$

ALZ005>007-016-271300-
NORTH CENTRAL ALABAMA

CITY           SKY/WX    TMP DP  RH WIND       PRES   REMARKS
CULLMAN AG STN   N/A     68 N/A N/A CALM        N/A
DECATUR AP     CLOUDY    69  68  96 S8        30.18S
6HR MIN TEMP:  66; 6HR MAX TEMP:  69;

HUNTSVILLE AP  CLOUDY    71  67  87 S9        30.18S
6HR MIN TEMP:  67; 6HR MAX TEMP:  71;

HUN NWS/UAH      N/A     69  65  88 S5          N/A
MERIDIANVILLE  CLOUDY    68  63  83 SE6       30.19R HAZE
REDSTONE ARSN  CLOUDY    69  67  94 S6        30.18R
VINEMONT AP    FOG       67  66  99 SE7       30.22R VSB 3/4
$$

ALZ008>010-271300-
NORTHEAST ALABAMA

CITY           SKY/WX    TMP DP  RH WIND       PRES   REMARKS
ALBERTVILLE    CLOUDY    66  66 100 SE6       30.21S FOG
FORT PAYNE     CLOUDY    66  61  82 E3        30.22S
SCOTTSBORO HCN   N/A     70 N/A N/A MISG        N/A
VALLEY HEAD      N/A     66 N/A N/A MISG        N/A
$$

TNZ076-096-097-271300-
SOUTHEASTERN MIDDLE TENNESSEE

CITY           SKY/WX    TMP DP  RH WIND       PRES   REMARKS
TULLAHOMA      CLOUDY    66  66 100 CALM      30.20S
WINCHESTER     PTSUNNY   66  64  94 SE7       30.20S
$$

...SURROUNDING SITES...

CITY           SKY/WX    TMP DP  RH WIND       PRES   REMARKS
ATLANTA        PTSUNNY   68  64  87 CALM      30.26R
ANNISTON       MOSUNNY   69  65  86 NE3       30.22S
BIRMINGHAM     CLOUDY    69  66  90 E5        30.22S
CHATTANOOGA    PTSUNNY   68  65  90 S5        30.22S
CORINTH        CLOUDY    70  68  94 S7        30.13R
DALTON         CLOUDY    64  64 100 SE3       30.24S
GADSDEN        CLOUDY   N/A N/A N/A CALM      30.21S
GOLDEN TRNGL   FOG       72  70  94 S6        30.14R VSB 1/2
HALEYVILLE     PTSUNNY   68  68 100 S3        30.20R
JACKSON TN     MOSUNNY   67  64  90 SE5       30.11S
LEWISBURG      CLOUDY    70  66  86 S5        30.17R
MEMPHIS        PTSUNNY   74  69  85 SW5       30.09R
NASHVILLE      CLOUDY    70  68  93 S7        30.16S
OXFORD MS      FAIR      68  66  94 S5        30.13S
ROME           CLOUDY    67  66  97 CALM      30.23S
SAVANNAH       CLOUDY    70  32  24 CALM      30.15R
TUPELO         CLOUDY    70  68  93 SW8       30.14R
TUSCALOOSA     CLOUDY    71  69  93 E6        30.17S FOG
$$

...GULF COAST WEATHER...

CITY           SKY/WX    TMP DP  RH WIND       PRES   REMARKS
GULFPORT       MOSUNNY   77  74  90 SE9       30.10S
PASCAGOULA     CLOUDY    75  74  96 E3        30.13S FOG
MOBILE         CLOUDY    74  73  97 E8        30.15S FOG
GULF SHORES    MOSUNNY   75  73  91 SE6       30.13F
PENSACOLA      PTSUNNY   77  74  90 SE10      30.12F
DESTIN         PTSUNNY   74  71  91 CALM      30.17R
PANAMA CITY    CLOUDY    72  68  88 NE6       30.17R
APPALACHICOLA  CLOUDY    76  70  82 NE5       30.17R
$$




USA.gov is the U.S. government's official web portal to all federal, state and local government web resources and services.